When you browse on this site, cookies collect data to enhance your experience and personalize the content and advertising you see.
Visit our Privacy Policy to learn more. By continuing to use the site, you agree to this use of cookies and data.
  • In Sweden
  • List of Countries
  • For 7 days
  • Water Temperature
  • Satellite Maps
  • Weather Map
  • Weather Widgets
  • user-avatar
    Login

    Hourly Weather Çankırı

    Today, 20 November, Tuesday

    Time Temperature Precipitation Wind Pressure Humidity
    00:00 +11°C° 0 mm 1 mps 697 mmHg 73%
    01:00 +10°C° 0 mm 2 mps 698 mmHg 74%
    02:00 +10°C° 0 mm 1 mps 697 mmHg 76%
    03:00 +10°C° 0 mm 1 mps 698 mmHg 77%
    04:00 +10°C° 0 mm 1 mps 698 mmHg 77%
    05:00 +10°C° 0 mm 1 mps 698 mmHg 78%
    06:00 +11°C° 0 mm 1 mps 699 mmHg 77%
    07:00 +11°C° 0 mm 1 mps 699 mmHg 76%
    08:00 +12°C° 0 mm 1 mps 699 mmHg 74%
    09:00 +13°C° 0 mm 2 mps 699 mmHg 69%
    10:00 +15°C° 0 mm 2 mps 700 mmHg 64%
    11:00 +16°C° 0 mm 2 mps 700 mmHg 59%
    12:00 +16°C° 0 mm 3 mps 700 mmHg 57%
    13:00 +17°C° 0 mm 3 mps 699 mmHg 55%
    14:00 +17°C° 0 mm 3 mps 699 mmHg 53%
    15:00 +16°C° 0 mm 2 mps 699 mmHg 58%
    16:00 +15°C° 0 mm 2 mps 699 mmHg 63%
    17:00 +13°C° 0 mm 1 mps 699 mmHg 68%
    18:00 +13°C° 0 mm 1 mps 699 mmHg 70%
    19:00 +12°C° 0 mm 1 mps 698 mmHg 73%
    20:00 +12°C° 0 mm 1 mps 698 mmHg 76%
    21:00 +12°C° 0 mm 1 mps 698 mmHg 77%
    22:00 +11°C° 0 mm 1 mps 698 mmHg 78%
    23:00 +11°C° 0 mm 1 mps 698 mmHg 79%

    Tomorrow, 21 November, Wednesday

    Time Temperature Precipitation Wind Pressure Humidity
    00:00 +11°C° 0.1 mm 1 mps 698 mmHg 79%
    01:00 +11°C° 0.1 mm 1 mps 698 mmHg 80%
    02:00 +11°C° 0.1 mm 1 mps 698 mmHg 80%
    03:00 +11°C° 0.2 mm 1 mps 697 mmHg 81%
    04:00 +11°C° 0.2 mm 1 mps 697 mmHg 82%
    05:00 +11°C° 0.2 mm 1 mps 697 mmHg 83%
    06:00 +11°C° 0.1 mm 1 mps 697 mmHg 82%
    07:00 +12°C° 0.1 mm 1 mps 696 mmHg 81%
    08:00 +12°C° 0.1 mm 1 mps 696 mmHg 80%
    09:00 +13°C° 0 mm 1 mps 696 mmHg 74%
    10:00 +14°C° 0 mm 1 mps 696 mmHg 69%
    11:00 +15°C° 0 mm 2 mps 696 mmHg 63%
    12:00 +15°C° 0.1 mm 2 mps 695 mmHg 60%
    13:00 +16°C° 0.1 mm 2 mps 695 mmHg 58%
    14:00 +16°C° 0.1 mm 2 mps 694 mmHg 55%
    15:00 +15°C° 0 mm 1 mps 694 mmHg 59%
    16:00 +14°C° 0 mm 1 mps 694 mmHg 64%
    17:00 +14°C° 0 mm 1 mps 694 mmHg 68%
    18:00 +13°C° 0.1 mm 1 mps 694 mmHg 69%
    19:00 +13°C° 0.1 mm 1 mps 694 mmHg 71%
    20:00 +13°C° 0.1 mm 1 mps 694 mmHg 73%
    21:00 +12°C° 0.4 mm 1 mps 694 mmHg 75%
    22:00 +12°C° 0.4 mm 1 mps 694 mmHg 77%
    23:00 +12°C° 0.4 mm 1 mps 694 mmHg 79%

    Day after tomorrow, 22 November, Thursday

    Time Temperature Precipitation Wind Pressure Humidity
    00:00 +11°C° 0.2 mm 1 mps 694 mmHg 81%
    01:00 +10°C° 0.2 mm 0 mps 693 mmHg 83%
    02:00 +10°C° 0.2 mm 0 mps 693 mmHg 84%
    03:00 +10°C° 0 mm 0 mps 693 mmHg 85%
    04:00 +9°C° 0 mm 0 mps 693 mmHg 86%
    05:00 +9°C° 0 mm 0 mps 693 mmHg 87%
    06:00 +9°C° 0.1 mm 0 mps 693 mmHg 85%
    07:00 +10°C° 0.1 mm 0 mps 694 mmHg 84%
    08:00 +11°C° 0.1 mm 1 mps 694 mmHg 82%
    09:00 +12°C° 0.3 mm 1 mps 694 mmHg 78%
    10:00 +13°C° 0.3 mm 1 mps 694 mmHg 74%
    11:00 +13°C° 0.3 mm 1 mps 694 mmHg 71%
    12:00 +13°C° 0.4 mm 1 mps 694 mmHg 70%
    13:00 +14°C° 0.4 mm 1 mps 694 mmHg 69%
    14:00 +14°C° 0.4 mm 1 mps 693 mmHg 68%
    15:00 +13°C° 0.3 mm 1 mps 694 mmHg 72%
    16:00 +13°C° 0.3 mm 1 mps 694 mmHg 76%
    17:00 +12°C° 0.3 mm 1 mps 694 mmHg 80%
    18:00 +12°C° 0.5 mm 1 mps 694 mmHg 82%
    19:00 +11°C° 0.5 mm 1 mps 694 mmHg 84%
    20:00 +11°C° 0.5 mm 1 mps 695 mmHg 86%
    21:00 +11°C° 0.8 mm 1 mps 695 mmHg 87%
    22:00 +11°C° 0.8 mm 1 mps 695 mmHg 88%
    23:00 +11°C° 0.8 mm 1 mps 695 mmHg 89%

    23 November, Friday

    Time Temperature Precipitation Wind Pressure Humidity
    00:00 +10°C° 0.5 mm 1 mps 696 mmHg 89%
    01:00 +9°C° 0.5 mm 2 mps 696 mmHg 89%
    02:00 +9°C° 0.5 mm 2 mps 696 mmHg 89%
    03:00 +9°C° 0.4 mm 2 mps 696 mmHg 89%
    04:00 +9°C° 0.4 mm 2 mps 696 mmHg 89%
    05:00 +9°C° 0.4 mm 2 mps 696 mmHg 88%
    06:00 +9°C° 0.2 mm 2 mps 697 mmHg 87%
    07:00 +9°C° 0.2 mm 2 mps 697 mmHg 86%
    08:00 +9°C° 0.2 mm 2 mps 698 mmHg 86%
    09:00 +9°C° 0.1 mm 3 mps 698 mmHg 82%
    10:00 +9°C° 0.1 mm 3 mps 698 mmHg 79%
    11:00 +9°C° 0.1 mm 3 mps 698 mmHg 76%
    12:00 +9°C° 0.1 mm 3 mps 698 mmHg 75%
    13:00 +9°C° 0.1 mm 3 mps 698 mmHg 73%
    14:00 +9°C° 0.1 mm 3 mps 698 mmHg 72%
    15:00 +9°C° 0 mm 3 mps 699 mmHg 73%
    16:00 +8°C° 0 mm 3 mps 699 mmHg 75%
    17:00 +8°C° 0 mm 3 mps 699 mmHg 76%
    18:00 +8°C° 0 mm 3 mps 700 mmHg 77%
    19:00 +7°C° 0 mm 3 mps 700 mmHg 79%
    20:00 +7°C° 0 mm 3 mps 700 mmHg 80%
    21:00 +6°C° 0 mm 2 mps 701 mmHg 81%
    22:00 +5°C° 0 mm 2 mps 701 mmHg 83%
    23:00 +5°C° 0 mm 2 mps 701 mmHg 84%

    24 November, Saturday

    Time Temperature Precipitation Wind Pressure Humidity
    00:00 +4°C° 0 mm 2 mps 701 mmHg 85%
    01:00 +4°C° 0 mm 2 mps 701 mmHg 85%
    02:00 +4°C° 0 mm 2 mps 701 mmHg 86%
    03:00 +3°C° 0 mm 2 mps 701 mmHg 85%
    04:00 +3°C° 0 mm 2 mps 701 mmHg 84%
    05:00 +3°C° 0 mm 2 mps 701 mmHg 83%
    06:00 +4°C° 0 mm 1 mps 701 mmHg 78%
    07:00 +4°C° 0 mm 1 mps 701 mmHg 74%
    08:00 +5°C° 0 mm 1 mps 701 mmHg 69%
    09:00 +6°C° 0 mm 1 mps 701 mmHg 61%
    10:00 +6°C° 0 mm 2 mps 701 mmHg 53%
    11:00 +8°C° 0 mm 2 mps 701 mmHg 45%
    12:00 +9°C° 0 mm 1 mps 700 mmHg 43%
    13:00 +10°C° 0 mm 1 mps 700 mmHg 41%
    14:00 +10°C° 0 mm 1 mps 699 mmHg 39%
    15:00 +9°C° 0 mm 1 mps 699 mmHg 44%
    16:00 +9°C° 0 mm 1 mps 699 mmHg 50%
    17:00 +8°C° 0 mm 1 mps 699 mmHg 55%
    18:00 +7°C° 0 mm 1 mps 699 mmHg 56%
    19:00 +7°C° 0 mm 1 mps 699 mmHg 58%
    20:00 +5°C° 0 mm 0 mps 699 mmHg 60%
    21:00 +5°C° 0 mm 0 mps 699 mmHg 60%
    22:00 +5°C° 0 mm 0 mps 699 mmHg 61%
    23:00 +5°C° 0 mm 0 mps 699 mmHg 62%

    25 November, Sunday

    Time Temperature Precipitation Wind Pressure Humidity
    00:00 +5°C° 0 mm 0 mps 699 mmHg 62%
    01:00 +4°C° 0 mm 0 mps 698 mmHg 63%
    02:00 +4°C° 0 mm 0 mps 698 mmHg 64%
    03:00 +4°C° 0 mm 0 mps 698 mmHg 65%
    04:00 +5°C° 0 mm 1 mps 698 mmHg 66%
    05:00 +5°C° 0 mm 1 mps 697 mmHg 67%
    06:00 +6°C° 0 mm 1 mps 698 mmHg 66%
    07:00 +6°C° 0 mm 1 mps 698 mmHg 64%
    08:00 +7°C° 0 mm 1 mps 698 mmHg 63%
    09:00 +8°C° 0 mm 1 mps 698 mmHg 59%
    10:00 +10°C° 0 mm 1 mps 698 mmHg 55%
    11:00 +11°C° 0 mm 1 mps 698 mmHg 50%
    12:00 +12°C° 0 mm 1 mps 697 mmHg 50%
    13:00 +12°C° 0 mm 1 mps 697 mmHg 49%
    14:00 +13°C° 0 mm 2 mps 697 mmHg 49%
    15:00 +11°C° 0 mm 1 mps 696 mmHg 54%
    16:00 +10°C° 0 mm 1 mps 696 mmHg 60%
    17:00 +9°C° 0 mm 1 mps 696 mmHg 66%
    18:00 +8°C° 0 mm 1 mps 696 mmHg 68%
    19:00 +8°C° 0 mm 1 mps 696 mmHg 70%
    20:00 +7°C° 0 mm 1 mps 696 mmHg 72%
    21:00 +7°C° 0 mm 1 mps 696 mmHg 73%
    22:00 +7°C° 0 mm 1 mps 696 mmHg 74%
    23:00 +7°C° 0 mm 1 mps 696 mmHg 75%
    Show more